Location: White Ridge parking lot
(35.4984°N, 106.8413°W)
Time: 06:05:47
(UTC-06:00)

XW-2D - Pass Details

Date: 22 September 2019
Orbit: 507 x 528 km, 97.5° (Epoch: 19 October)

Event Time Altitude Azimuth Distance (km) Brightness Sun altitude
Rises 05:57:16 0° 37° (NE) 2,640 ? -12.6°
Reaches altitude 10° 06:00:36 10° 69° (ENE) 1,741 ? -11.9°
Maximum altitude 06:02:05 12° 93° (E) 1,614 ? -11.6°
Drops below altitude 10° 06:03:33 10° 116° (ESE) 1,730 ? -11.3°
Sets 06:06:50 0° 148° (SSE) 2,605 ? -10.6°
